[[{"header":{"parameterUnit":"m.s-1","parameterCategory":1,"la1":30.2991,"la2":30.254,"lo1":-89.0895,"lo2":-89.0444,"dy":0.0017,"dx":0.0017,"nx":28,"ny":28,"refTime":"2024-10-01T09:00:00:Z","depth":0,"parameterNumber":2,"parameterNumberName":"U-component_of_WINDS"},"data":[0,0,0,0,0,0,0,0,0,0,0,0,0,0,0,0,0,0,0,0,0,0,0,0,0,0,0,0,0,0,0,0,0,0,0,0,0,0,0,0,0,0,0,0,0,0,0,0,0,0,0,0,0,0,0,0,0,0,0.9605,0.9606,0,0.9676,0.9677,0.9677,0.9669,0.9668,0.9667,0.9666,0.9741,0.9744,0.9747,0,0,0,0,0,0,0,0,0,0,0,0,0,0.9465,0.9468,0.9605,0.9606,0.9607,0.9676,0.9677,0.9678,0.9669,0.9668,0.9666,0.9665,0.974,0.9743,0.9747,0,0,0,0,0,0,0,0,0,0,0,0,0,0.953,0.9469,0.9605,0.9611,0.9612,0.9675,0.9677,0.9678,0.967,0.9668,0.9666,0.9665,0.9739,0.9743,0.9748,0.981,0,0,0.9762,0.9764,0,0,0,0,0,0,0,0,0.9526,0.9535,0.9609,0.9611,0.9612,0.9662,0.9655,0.9722,0.967,0.9648,0.9666,0.9664,0.9716,0.9722,0.9739,0.9814,0.9817,0.9762,0.9765,0.9767,0.9768,0,0,0,0,0,0,0,0.9522,0.9532,0.9633,0.9611,0.9612,0.9611,0.9618,0.9667,0.9691,0.965,0.9649,0.9658,0.9717,0.9735,0.9741,0.9818,0.9762,0.9766,0.9769,0.9771,0.9945,0.9946,0,0,0,0,0,0,0.9516,0.9528,0.9631,0.9635,0.9564,0.9615,0.9623,0.9648,0.969,0.9695,0.9659,0.9657,0.9728,0.9736,0.9744,0.9818,0.9767,0.9771,0.9774,0.9943,0.9945,0.9947,0,0,0,0,0,0,0.9513,0.9525,0.9628,0.9582,0.9595,0.9619,0.9647,0.965,0.9668,0.9697,0.9702,0.9673,0.9727,0.9737,0.9793,0.982,0.9773,0.9777,0.9941,0.9944,0.9946,0.9968,0,0,0,0,0,0,0.9509,0.9524,0.9548,0.9582,0.9597,0.9676,0.9649,0.9653,0.9676,0.9674,0.9712,0.9717,0.9726,0.9786,0.9797,0.9826,0.9781,0.9938,0.9942,0.9945,0.9965,0.9971,0.9976,0,0,0,0,0,0.9504,0.9552,0.9549,0.9561,0.9627,0.9677,0.9686,0.9696,0.9678,0.9702,0.972,0.9715,0.9816,0.9792,0.9805,0.9835,0.9937,0.9941,0.9945,0.9962,0.997,0.9976,0,0,0,0,0,0,0.9521,0.9557,0.9554,0.9614,0.9643,0.9676,0.9706,0.9704,0.9738,0.9735,0.9747,0.9755,0.9811,0.9829,0.9801,0.9896,0.9874,0.9881,0.9882,0.989,0.9896,0.989,0.9785,0,0,0,0,0,0.9532,0.9569,0.9598,0.9649,0.9663,0.9683,0.9705,0.9709,0.974,0.9752,0.9774,0.9804,0.9842,0.9868,0.9905,0.9968,0.9975,0.9995,1.0,1.0005,1.001,1.0043,1.0052,0.9961,0.9961,0.9961,0,0,0.9555,0.9579,0.9602,0.9653,0.9676,0.9714,0.9693,0.9735,0.9763,0.9759,0.9811,0.9829,0.9863,0.9922,0.995,0.9939,1.0037,1.001,1.0014,1.0017,1.0048,1.0057,1.0064,0.9964,0.9963,0.9963,0,0,0.9615,0.9638,0.9682,0.9704,0.9738,0.975,0.9761,0.9794,0.9805,0.9858,0.9855,0.9889,0.9955,0.9979,1.0,1.0068,1.0064,1.008,1.011,1.0142,1.0149,1.0155,1.0178,1.0186,1.0086,1.0086,1.0086,0,0.964,0.9696,0.9705,0.9746,0.9768,0.9765,0.9809,0.9831,0.9876,0.9891,0.9879,0.996,0.9983,1.0046,1.0062,1.008,1.0092,1.0075,1.0147,1.0153,1.0159,1.0181,1.019,1.0087,1.0087,1.0087,1.0087,0,0.9724,0.9763,0.9794,0.9835,0.9862,0.9904,0.9919,0.9945,0.9947,0.996,1.0014,1.0041,1.0082,1.0098,1.0102,1.0162,1.0154,1.0144,1.0121,1.0169,1.019,1.0198,1.0089,1.0089,1.0088,1.0088,0,0,0.9797,0.9841,0.9853,0.987,0.9907,0.9937,0.998,1.0019,1.004,1.0071,1.0106,1.0161,1.0151,1.0175,1.0181,1.0209,1.0259,1.0196,1.0196,1.0205,1.0324,1.033,1.0339,1.0256,1.0258,1.0259,1.0321,0,0.986,0.9933,0.9942,1.0007,1.0043,1.004,1.0076,1.0103,1.0116,1.0149,1.0164,1.0202,1.0188,1.0201,1.0229,1.0247,1.0282,1.0243,1.0289,1.029,1.0278,1.035,1.0357,1.0414,1.0329,1.033,1.0331,0,0.9943,0.9974,1.0042,1.0072,1.0087,1.012,1.0155,1.0187,1.0216,1.0224,1.025,1.0252,1.0295,1.0271,1.0331,1.0303,1.0323,1.0334,1.0336,1.034,1.0312,1.0354,1.0432,1.044,1.0344,1.0343,1.0342,0,0.9987,1.0046,1.0094,1.011,1.0147,1.0169,1.0186,1.0214,1.0236,1.0267,1.0282,1.0319,1.0338,1.0367,1.0378,1.036,1.0437,1.0414,1.0444,1.0443,1.0459,1.0457,1.0539,1.0474,1.0474,1.0474,1.0474,0,1.0055,1.0097,1.0114,1.0144,1.019,1.0199,1.0245,1.0261,1.0285,1.0318,1.0318,1.0349,1.0363,1.0396,1.0406,1.0452,1.0462,1.0469,1.0471,1.0468,1.0467,1.048,1.0475,1.0476,1.0476,1.0475,1.0475,0,1.0111,1.0125,1.0177,1.0207,1.0215,1.0248,1.0273,1.0302,1.0315,1.0356,1.0366,1.0386,1.0425,1.0439,1.0487,1.0493,1.0546,1.0546,1.0536,1.0536,1.0563,1.056,1.0655,1.0667,1.0596,1.0597,1.0597,0,1.0153,1.0185,1.0217,1.0238,1.0255,1.029,1.0312,1.0322,1.0346,1.0381,1.0405,1.0442,1.0473,1.0534,1.0554,1.059,1.0589,1.062,1.0594,1.059,1.0587,1.0584,1.0587,1.0624,1.0625,1.0625,1.0626,0,1.0225,1.023,1.0261,1.0295,1.0321,1.0349,1.0376,1.0393,1.0408,1.0434,1.0472,1.0496,1.0543,1.058,1.0616,1.0634,1.0632,1.0634,1.0642,1.0639,1.0631,1.0633,1.0547,1.0631,1.0631,1.063,1.063,1.063,1.0274,1.0301,1.0328,1.0363,1.0384,1.0408,1.0435,1.0451,1.0483,1.0521,1.0526,1.0567,1.0594,1.0643,1.0662,1.0694,1.0685,1.0698,1.0701,1.0703,1.0704,1.0627,1.0701,1.0701,1.07,1.07,1.07,0,1.0344,1.0361,1.0393,1.0429,1.0456,1.0452,1.0481,1.0504,1.0539,1.0565,1.0594,1.0638,1.0673,1.0695,1.0731,1.0752,1.0752,1.0761,1.0759,1.0762,1.0711,1.0699,1.076,1.076,1.076,1.076,1.076,1.076,1.0383,1.0428,1.0436,1.0491,1.0508,1.0547,1.0564,1.0586,1.0606,1.0654,1.0683,1.0697,1.0721,1.0758,1.079,1.0796,1.0808,1.0817,1.0822,1.0773,1.0766,1.076,1.0749,1.082,1.082,1.0871,1.0871,1.0872]},{"header":{"parameterUnit":"m.s-1","parameterCategory":1,"la1":30.2991,"la2":30.254,"lo1":-89.0895,"lo2":-89.0444,"dy":0.0017,"dx":0.0017,"nx":28,"ny":28,"refTime":"2024-10-01T09:00:00:Z","depth":0,"parameterNumber":3,"parameterNumberName":"V-component_of_WINDS"},"data":[0,0,0,0,0,0,0,0,0,0,0,0,0,0,0,0,0,0,0,0,0,0,0,0,0,0,0,0,0,0,0,0,0,0,0,0,0,0,0,0,0,0,0,0,0,0,0,0,0,0,0,0,0,0,0,0,0,0,0.2104,0.2103,0,0.2022,0.2021,0.202,0.1969,0.1969,0.1968,0.1968,0.1883,0.1881,0.1879,0,0,0,0,0,0,0,0,0,0,0,0,0,0.2217,0.2215,0.2104,0.2103,0.2102,0.2022,0.2021,0.202,0.1969,0.1969,0.1968,0.1968,0.1884,0.1882,0.1879,0,0,0,0,0,0,0,0,0,0,0,0,0,0.2154,0.2214,0.2105,0.2067,0.2063,0.2022,0.2021,0.2019,0.1969,0.1968,0.1968,0.1968,0.1885,0.1882,0.1879,0.1868,0,0,0.187,0.1868,0,0,0,0,0,0,0,0,0.2158,0.215,0.2074,0.207,0.2065,0.2005,0.2029,0.1969,0.1969,0.2005,0.1968,0.1968,0.1924,0.1918,0.1903,0.1864,0.1861,0.1869,0.1867,0.1866,0.1865,0,0,0,0,0,0,0,0.2162,0.2154,0.2072,0.2073,0.2067,0.2054,0.2045,0.2017,0.1968,0.2002,0.1998,0.1989,0.1922,0.1906,0.1901,0.1859,0.1869,0.1867,0.1865,0.1864,0.1804,0.1805,0,0,0,0,0,0,0.2173,0.2157,0.2074,0.2069,0.2111,0.2052,0.2042,0.2025,0.1968,0.1959,0.1989,0.1986,0.1912,0.1904,0.1898,0.188,0.1866,0.1863,0.1862,0.1804,0.1804,0.1805,0,0,0,0,0,0,0.2175,0.2166,0.2078,0.2112,0.21,0.2051,0.2032,0.2023,0.2008,0.1958,0.1949,0.1983,0.1911,0.1902,0.1875,0.1876,0.1862,0.1859,0.1804,0.1804,0.1804,0.1845,0,0,0,0,0,0,0.2179,0.2167,0.2163,0.2112,0.2098,0.2058,0.2032,0.2022,0.2003,0.1999,0.195,0.1941,0.191,0.188,0.1872,0.1872,0.1857,0.1804,0.1804,0.1804,0.1843,0.1847,0.185,0,0,0,0,0,0.2183,0.2179,0.2163,0.2154,0.2093,0.2058,0.205,0.2014,0.2003,0.1998,0.1966,0.1943,0.1877,0.1878,0.1869,0.1867,0.1803,0.1804,0.1804,0.1842,0.1846,0.185,0,0,0,0,0,0,0.2232,0.2171,0.2154,0.2133,0.2101,0.2049,0.2042,0.2019,0.199,0.1987,0.1944,0.1933,0.191,0.1886,0.1887,0.1852,0.1837,0.1836,0.1869,0.1873,0.1876,0.1882,0.1854,0,0,0,0,0,0.224,0.2217,0.2165,0.2152,0.2136,0.2092,0.2076,0.205,0.2015,0.2002,0.1967,0.1934,0.1905,0.1888,0.1859,0.1839,0.1827,0.1834,0.1837,0.1839,0.1839,0.1824,0.1826,0.1806,0.1806,0.1806,0,0,0.2257,0.2221,0.2209,0.2161,0.2133,0.2109,0.2081,0.2058,0.2039,0.1998,0.197,0.1944,0.1903,0.188,0.1867,0.1859,0.1841,0.184,0.1843,0.184,0.1825,0.1827,0.1829,0.1807,0.1807,0.1807,0,0,0.2275,0.2247,0.2231,0.2203,0.2161,0.2131,0.2127,0.2078,0.2059,0.203,0.1998,0.1975,0.1927,0.1899,0.1878,0.1883,0.186,0.1875,0.1891,0.1877,0.1879,0.188,0.188,0.1881,0.1874,0.1874,0.1874,0,0.2302,0.2265,0.2226,0.2204,0.2183,0.2143,0.2126,0.2101,0.2051,0.2037,0.2028,0.1965,0.1935,0.1903,0.1904,0.1889,0.1882,0.188,0.1882,0.1882,0.1883,0.1883,0.1883,0.1876,0.1876,0.1876,0.1876,0,0.2299,0.2274,0.2266,0.2218,0.2196,0.2177,0.2134,0.2116,0.2092,0.2063,0.2033,0.1995,0.1957,0.1947,0.1924,0.1911,0.1906,0.189,0.1874,0.1888,0.1886,0.1886,0.1879,0.1878,0.1878,0.1877,0,0,0.2348,0.2276,0.2274,0.2251,0.22,0.218,0.2157,0.2119,0.2104,0.2071,0.205,0.2009,0.1993,0.1969,0.1942,0.193,0.1934,0.1915,0.1913,0.1919,0.1915,0.1928,0.1928,0.1918,0.1918,0.1918,0.1918,0,0.2358,0.2317,0.228,0.2251,0.2227,0.2187,0.2167,0.2133,0.2105,0.2079,0.2047,0.2018,0.1999,0.1984,0.1971,0.1937,0.1933,0.1936,0.1897,0.1897,0.1909,0.1928,0.1941,0.1944,0.1918,0.1917,0.1917,0,0.2365,0.2332,0.2302,0.225,0.2239,0.2222,0.2183,0.2159,0.2118,0.2098,0.2071,0.2041,0.2015,0.2001,0.1962,0.1966,0.1947,0.1928,0.1927,0.1922,0.1908,0.1923,0.1944,0.1944,0.1917,0.1917,0.1917,0,0.2402,0.235,0.2324,0.2306,0.2246,0.2235,0.2209,0.2169,0.2147,0.2113,0.2098,0.2061,0.2041,0.2012,0.1973,0.1967,0.1938,0.1921,0.1919,0.192,0.1915,0.1916,0.1933,0.1904,0.1904,0.1904,0.1904,0,0.2418,0.24,0.234,0.2324,0.2303,0.2259,0.2239,0.221,0.2173,0.215,0.2113,0.2092,0.2042,0.2014,0.1984,0.1955,0.1947,0.1929,0.1921,0.1932,0.1934,0.1919,0.1918,0.1904,0.1904,0.1904,0.1904,0,0.2456,0.2415,0.2384,0.2329,0.2315,0.2301,0.2254,0.2236,0.2204,0.2175,0.2166,0.2116,0.2082,0.2039,0.1992,0.197,0.1945,0.1933,0.1959,0.1954,0.1954,0.1954,0.1962,0.196,0.1933,0.1933,0.1934,0,0.2469,0.2454,0.2397,0.2378,0.2354,0.2325,0.2303,0.2258,0.2236,0.2188,0.2175,0.2138,0.2105,0.2051,0.201,0.1973,0.1959,0.1964,0.1954,0.1964,0.1958,0.1959,0.1957,0.1968,0.1968,0.1969,0.1969,0,0.2495,0.2474,0.2444,0.2405,0.2379,0.2347,0.2312,0.2299,0.2248,0.2225,0.2188,0.2163,0.2113,0.2076,0.2032,0.2004,0.1978,0.1972,0.197,0.1981,0.1996,0.1987,0.1966,0.1973,0.1972,0.1972,0.1972,0.1972,0.2519,0.2504,0.246,0.2427,0.2396,0.2364,0.2344,0.2309,0.2279,0.2234,0.221,0.2174,0.2131,0.207,0.2043,0.2013,0.2004,0.2,0.1999,0.1999,0.2002,0.2001,0.2005,0.2005,0.2005,0.2004,0.2004,0,0.2543,0.2512,0.2482,0.2434,0.2407,0.2384,0.2344,0.2323,0.2292,0.2254,0.2222,0.2179,0.2142,0.2097,0.2056,0.2041,0.2027,0.2032,0.2032,0.2026,0.2013,0.2019,0.2043,0.2043,0.2043,0.2043,0.2043,0.2043,0.2552,0.2523,0.2497,0.2452,0.2422,0.2386,0.2365,0.2335,0.2305,0.2258,0.2227,0.2198,0.2156,0.2112,0.2076,0.2064,0.205,0.2058,0.2042,0.2031,0.2027,0.2024,0.2029,0.2055,0.2055,0.2057,0.2057,0.2057]}]]